Tracking 17925 objects as of 20-February-2017
HD Live streaming from Space Station
objects crossing your sky now

BREEZE-M R/B

Track BREEZE-M R/B now!


NORAD ID: 28925
Int'l Code: 2005-052B
Perigee: 6,179.0 km
Apogee: 35,362.9 km
Inclination: 19.7 °
Period: 741.7 minutes
Semi major axis: 27141 km
RCS: 0.6439 m2 (medium)
Launch date: December 29, 2005
Source: Commonwealth of Independent States (former USSR) (CIS)
Launch site: TYURATAM MISSILE AND SPACE COMPLEX (TTMTR)

Note: This is a ROCKET BODY
Your satellite tracking list
Your tracking list is empty





NASA's NSSDC Master Catalog

Two Line Element Set (TLE):
1 28925U 05052B   17049.21697708 -.00000047  00000-0  00000+0 0  9990
2 28925  19.6813  11.5864 5376165 177.3563   4.5564  1.94151554 79012
Source of the keplerian elements: AFSPC